| time (UTC) | temp F | wind direction | speed MPH | gust MPH | rain 1hr in | rain 24hr in | rain mn in | humidity % | barometer mb |
| 20260831010011 | 75 | 329 | 0.0 | 2.0 | 0.00 | 0.00 | 0.00 | 37 | 1016.3 |
| 20260831004507 | 75 | 66 | 0.0 | 1.0 | 0.00 | 0.00 | 0.00 | 36 | 1016.5 |
| 20260831003006 | 76 | 77 | 0.0 | 5.0 | 0.00 | 0.00 | 0.00 | 35 | 1016.6 |
| 20260831001527 | 77 | 302 | 0.0 | 1.0 | 0.00 | 0.00 | 0.00 | 34 | 1016.7 |
| 20260831000031 | 76 | 16 | 0.0 | 5.0 | 0.00 | 0.00 | 0.00 | 35 | 1016.9 |
| 20260830234535 | 76 | 13 | 0.0 | 3.0 | 0.00 | 0.00 | 0.00 | 35 | 1017.1 |
| 20260830233018 | 76 | 21 | 0.0 | 3.0 | 0.00 | 0.00 | 0.00 | 35 | 1017.3 |
| 20260830231516 | 76 | 18 | 1.0 | 5.0 | 0.00 | 0.00 | 0.00 | 34 | 1017.4 |
| 20260830230011 | 76 | 8 | 0.0 | 3.0 | 0.00 | 0.00 | 0.00 | 34 | 1017.5 |
| 20260830224532 | 75 | 77 | 0.0 | 4.0 | 0.00 | 0.00 | 0.00 | 35 | 1017.7 |
| 20260830223030 | 75 | 310 | 0.0 | 4.0 | 0.00 | 0.00 | 0.00 | 35 | 1018.1 |
| 20260830221543 | 74 | 317 | 2.0 | 7.0 | 0.00 | 0.00 | 0.00 | 33 | 1018.3 |
| 20260830220028 | 73 | 70 | 2.0 | 5.0 | 0.00 | 0.00 | 0.00 | 35 | 1018.5 |
| 20260830214523 | 74 | 49 | 1.0 | 4.0 | 0.00 | 0.00 | 0.00 | 35 | 1018.7 |
| 20260830213019 | 73 | 290 | 1.0 | 5.0 | 0.00 | 0.00 | 0.00 | 36 | 1019.0 |
| 20260830211518 | 72 | 335 | 0.0 | 9.0 | 0.00 | 0.00 | 0.00 | 37 | 1019.3 |
| 20260830210012 | 72 | 328 | 1.0 | 3.0 | 0.00 | 0.00 | 0.00 | 38 | 1019.3 |
| 20260830204511 | 71 | 315 | 0.0 | 5.0 | 0.00 | 0.00 | 0.00 | 38 | 1019.4 |
| 20260830203008 | 71 | 43 | 0.0 | 5.0 | 0.00 | 0.00 | 0.00 | 37 | 1019.6 |
| 20260830201504 | 72 | 29 | 0.0 | 3.0 | 0.00 | 0.00 | 0.00 | 39 | 1019.7 |
| 20260830200010 | 71 | 47 | 0.0 | 2.0 | 0.00 | 0.00 | 0.00 | 38 | 1019.9 |
| 20260830194527 | 69 | 319 | 0.0 | 5.0 | 0.00 | 0.00 | 0.00 | 40 | 1020.1 |
| 20260830193021 | 69 | 346 | 1.0 | 2.0 | 0.00 | 0.00 | 0.00 | 41 | 1020.3 |
| 20260830191518 | 68 | 353 | 1.0 | 5.0 | 0.00 | 0.00 | 0.00 | 44 | 1020.4 |
| 20260830190037 | 68 | 11 | 0.0 | 4.0 | 0.00 | 0.00 | 0.00 | 45 | 1020.6 |
| 20260830184512 | 67 | 332 | 1.0 | 5.0 | 0.00 | 0.00 | 0.00 | 45 | 1020.7 |
| 20260830183009 | 67 | 51 | 0.0 | 1.0 | 0.00 | 0.00 | 0.00 | 47 | 1020.7 |
| 20260830181508 | 65 | 313 | 1.0 | 7.0 | 0.00 | 0.00 | 0.00 | 51 | 1020.9 |
| 20260830180035 | 64 | 311 | 2.0 | 5.0 | 0.00 | 0.00 | 0.00 | 59 | 1020.9 |
| 20260830174530 | 63 | 302 | 0.0 | 4.0 | 0.00 | 0.00 | 0.00 | 62 | 1020.9 |
| 20260830173023 | 62 | 288 | 0.0 | 4.0 | 0.00 | 0.00 | 0.00 | 64 | 1021.0 |
| 20260830171520 | 61 | 340 | 0.0 | 2.0 | 0.00 | 0.00 | 0.00 | 65 | 1021.1 |
| 20260830170016 | 60 | 312 | 0.0 | 1.0 | 0.00 | 0.00 | 0.00 | 67 | 1021.1 |
| 20260830164512 | 59 | 312 | 0.0 | 3.0 | 0.00 | 0.00 | 0.00 | 69 | 1021.0 |
| 20260830163008 | 57 | 322 | 0.0 | 3.0 | 0.00 | 0.00 | 0.00 | 71 | 1021.3 |
| 20260830161533 | 56 | 295 | 0.0 | 1.0 | 0.00 | 0.00 | 0.00 | 72 | 1021.4 |
| 20260830160036 | 55 | 305 | 0.0 | 2.0 | 0.00 | 0.00 | 0.00 | 73 | 1021.4 |
| 20260830154527 | 54 | 306 | 0.0 | 2.0 | 0.00 | 0.00 | 0.00 | 74 | 1021.4 |
| 20260830153029 | 53 | 274 | 0.0 | 0.0 | 0.00 | 0.00 | 0.00 | 75 | 1021.5 |
| 20260830151526 | 52 | 271 | 0.0 | 1.0 | 0.00 | 0.00 | 0.00 | 77 | 1021.5 |
| 20260830150020 | 51 | 272 | 0.0 | 1.0 | 0.00 | 0.00 | 0.00 | 78 | 1021.7 |
| 20260830144516 | 50 | 237 | 0.0 | 1.0 | 0.00 | 0.00 | 0.00 | 79 | 1021.7 |
| 20260830143036 | 49 | 236 | 0.0 | 1.0 | 0.00 | 0.00 | 0.00 | 80 | 1021.7 |
| 20260830141535 | 47 | 230 | 0.0 | 0.0 | 0.00 | 0.00 | 0.00 | 80 | 1021.7 |
| 20260830140034 | 46 | 230 | 0.0 | 0.0 | 0.00 | 0.00 | 0.00 | 79 | 1021.7 |
| 20260830134537 | 46 | 230 | 0.0 | 0.0 | 0.00 | 0.00 | 0.00 | 78 | 1021.6 |
| 20260830133028 | 47 | 230 | 0.0 | 0.0 | 0.00 | 0.00 | 0.00 | 78 | 1021.4 |
| 20260830131528 | 47 | 230 | 0.0 | 0.0 | 0.00 | 0.00 | 0.00 | 78 | 1021.3 |
| 20260830130034 | 48 | 230 | 0.0 | 0.0 | 0.00 | 0.00 | 0.00 | 78 | 1021.3 |
| 20260830124532 | 47 | 230 | 0.0 | 0.0 | 0.00 | 0.00 | 0.00 | 77 | 1021.1 |
| 20260830123034 | 47 | 230 | 0.0 | 0.0 | 0.00 | 0.00 | 0.00 | 78 | 1020.9 |
| 20260830121537 | 47 | 230 | 0.0 | 0.0 | 0.00 | 0.00 | 0.00 | 72 | 1021.0 |
| 20260830120005 | 47 | 230 | 0.0 | 0.0 | 0.00 | 0.00 | 0.00 | 71 | 1021.0 |
| 20260830114506 | 47 | 230 | 0.0 | 0.0 | 0.00 | 0.00 | 0.00 | 71 | 1021.0 |
| 20260830113004 | 47 | 230 | 0.0 | 0.0 | 0.00 | 0.00 | 0.00 | 70 | 1020.9 |
| 20260830111504 | 47 | 230 | 0.0 | 0.0 | 0.00 | 0.00 | 0.00 | 70 | 1020.9 |
| 20260830110022 | 48 | 230 | 0.0 | 0.0 | 0.00 | 0.00 | 0.00 | 70 | 1021.0 |
| 20260830104542 | 48 | 230 | 0.0 | 0.0 | 0.00 | 0.00 | 0.00 | 69 | 1020.9 |
| 20260830103015 | 48 | 230 | 0.0 | 0.0 | 0.00 | 0.00 | 0.00 | 69 | 1020.9 |
| 20260830101514 | 49 | 230 | 0.0 | 0.0 | 0.00 | 0.00 | 0.00 | 68 | 1020.9 |
| 20260830100009 | 49 | 230 | 0.0 | 0.0 | 0.00 | 0.00 | 0.00 | 68 | 1020.9 |
| 20260830094503 | 50 | 230 | 0.0 | 0.0 | 0.00 | 0.00 | 0.00 | 68 | 1020.9 |
| 20260830093004 | 50 | 230 | 0.0 | 0.0 | 0.00 | 0.00 | 0.00 | 68 | 1020.9 |
| 20260830091528 | 51 | 230 | 0.0 | 1.0 | 0.00 | 0.00 | 0.00 | 70 | 1020.9 |
| 20260830090027 | 50 | 229 | 0.0 | 0.0 | 0.00 | 0.00 | 0.00 | 68 | 1021.0 |
| 20260830084521 | 50 | 230 | 0.0 | 0.0 | 0.00 | 0.00 | 0.00 | 68 | 1021.0 |
| 20260830083033 | 50 | 230 | 0.0 | 0.0 | 0.00 | 0.00 | 0.00 | 67 | 1021.0 |
| 20260830081512 | 51 | 229 | 0.0 | 0.0 | 0.00 | 0.00 | 0.00 | 67 | 1021.0 |
| 20260830080012 | 51 | 229 | 0.0 | 0.0 | 0.00 | 0.00 | 0.00 | 68 | 1020.9 |
| 20260830074510 | 52 | 229 | 0.0 | 0.0 | 0.00 | 0.00 | 0.00 | 67 | 1020.9 |
| 20260830073030 | 52 | 230 | 0.0 | 0.0 | 0.00 | 0.00 | 0.00 | 66 | 1020.9 |
| 20260830071528 | 53 | 230 | 0.0 | 0.0 | 0.00 | 0.00 | 0.00 | 66 | 1020.9 |
| 20260830070026 | 54 | 230 | 0.0 | 0.0 | 0.00 | 0.00 | 0.00 | 66 | 1021.0 |
| 20260830064521 | 55 | 229 | 0.0 | 0.0 | 0.00 | 0.00 | 0.00 | 65 | 1021.0 |
| 20260830063020 | 56 | 229 | 0.0 | 0.0 | 0.00 | 0.00 | 0.00 | 64 | 1020.9 |
| 20260830061513 | 56 | 229 | 0.0 | 0.0 | 0.00 | 0.00 | 0.00 | 63 | 1020.8 |
| 20260830060015 | 57 | 250 | 0.0 | 1.0 | 0.00 | 0.00 | 0.00 | 62 | 1020.9 |
| 20260830054539 | 57 | 245 | 0.0 | 0.0 | 0.00 | 0.00 | 0.00 | 61 | 1020.8 |
| 20260830053032 | 58 | 244 | 0.0 | 1.0 | 0.00 | 0.00 | 0.00 | 61 | 1020.8 |
| 20260830051530 | 58 | 281 | 0.0 | 0.0 | 0.00 | 0.00 | 0.00 | 59 | 1020.8 |
| 20260830050025 | 59 | 219 | 0.0 | 0.0 | 0.00 | 0.00 | 0.00 | 58 | 1020.9 |
| 20260830044524 | 60 | 290 | 0.0 | 1.0 | 0.00 | 0.00 | 0.00 | 56 | 1020.9 |
| 20260830043021 | 60 | 299 | 0.0 | 1.0 | 0.00 | 0.00 | 0.00 | 54 | 1020.8 |
| 20260830041521 | 61 | 300 | 0.0 | 1.0 | 0.00 | 0.00 | 0.00 | 53 | 1020.7 |
| 20260830040043 | 61 | 171 | 0.0 | 1.0 | 0.00 | 0.00 | 0.00 | 51 | 1020.4 |
| 20260830034544 | 62 | 328 | 0.0 | 3.0 | 0.00 | 0.00 | 0.00 | 50 | 1020.2 |
| 20260830033032 | 63 | 108 | 0.0 | 6.0 | 0.00 | 0.00 | 0.00 | 48 | 1020.0 |
| 20260830031503 | 64 | 305 | 0.0 | 5.0 | 0.00 | 0.00 | 0.00 | 45 | 1019.9 |
| 20260830030004 | 65 | 337 | 0.0 | 4.0 | 0.00 | 0.00 | 0.00 | 43 | 1019.7 |
| 20260830024504 | 66 | 314 | 1.0 | 5.0 | 0.00 | 0.00 | 0.00 | 40 | 1019.6 |
| 20260830023005 | 67 | 358 | 0.0 | 4.0 | 0.00 | 0.00 | 0.00 | 39 | 1019.6 |
| 20260830021506 | 68 | 248 | 0.0 | 3.0 | 0.00 | 0.00 | 0.00 | 39 | 1019.6 |
| 20260830020003 | 69 | 4 | 1.0 | 6.0 | 0.00 | 0.00 | 0.00 | 36 | 1019.5 |
| 20260830014504 | 69 | 265 | 0.0 | 5.0 | 0.00 | 0.00 | 0.00 | 35 | 1019.5 |
| 20260830013007 | 70 | 290 | 0.0 | 6.0 | 0.00 | 0.00 | 0.00 | 34 | 1019.3 |
| 20260830011504 | 71 | 307 | 0.0 | 6.0 | 0.00 | 0.00 | 0.00 | 35 | 1019.3 |